Weather observations for the past three days for
Indianapolis International Airport
Imperial (Metric)
Date Time (edt) Wind (mph) Vis. (mi.) Weather Sky Cond. Temperature (ºF) Relative Humidity Wind Chill (°F) Heat Index (°F) Pressure Precipitation (in)
Air Dwpt 6 hour altimeter (in) sea level (mb) 1 hr 3 hr 6 hr
Max. Min.
22 23:54 S 13 10.00 Mostly Cloudy BKN150 81 66 61% 83 29.85 1009.9
22 22:54 S 13 10.00 Mostly Cloudy FEW065 BKN150 82 66.9 60% 85 29.86 1010.4
22 21:54 S 12 10.00 Mostly Cloudy BKN150 82.9 66.9 59% 86 29.86 1010.2
22 20:54 S 12 10.00 Mostly Cloudy FEW080 BKN150 84.9 66.9 55% 88 29.87 1010.7
22 19:54 S 14 10.00 Mostly Cloudy FEW080 SCT150 BKN230 87.1 66 91.9 87.1 50% 89 29.89 1011.4
22 18:54 S 14 10.00 Mostly Cloudy FEW080 SCT150 BKN230 88 66 48% 90 29.91 1011.9
22 17:54 S 16 G 26 10.00 Mostly Cloudy FEW055 FEW150 BKN230 90 66 45% 93 29.92 1012.5
22 16:54 SW 18 10.00 Mostly Cloudy SCT055 BKN230 91 64.9 42% 93 29.94 1013.1
22 15:54 SW 17 G 25 10.00 Mostly Cloudy SCT055 BKN230 91 66 44% 94 29.96 1013.8
22 14:54 SW 12 G 25 10.00 Mostly Cloudy SCT055 BKN230 91 66 44% 94 29.98 1014.4
22 13:54 S 15 G 25 10.00 Mostly Cloudy SCT050 BKN230 89.1 66 90 77 47% 92 30 1015.0
22 12:54 SW 16 G 22 10.00 Mostly Cloudy SCT050 BKN230 88 66 48% 90 30.02 1015.8
22 11:54 SW 16 10.00 Partly Cloudy FEW047 SCT230 89.1 66.9 48% 92 30.04 1016.3
22 10:54 W 15 10.00 Partly Cloudy FEW060 SCT230 86 68 55% 89 30.06 1017.1
22 09:54 W 10 10.00 Partly Cloudy FEW060 SCT230 84 68 59% 87 30.07 1017.6
22 08:54 W 9 10.00 Partly Cloudy FEW060 SCT230 81 68 65% 84 30.08 1017.7
22 07:54 SW 7 10.00 Partly Cloudy FEW060 SCT230 78.1 68 78.1 73 71% 80 30.09 1018.3
22 06:54 SW 8 10.00 Mostly Cloudy SCT060 BKN190 73 66.9 81% 30.1 1018.4
22 05:54 SW 7 10.00 Mostly Cloudy SCT060 BKN190 73.9 66.9 79% 30.1 1018.3
22 04:54 SW 6 10.00 Mostly Cloudy BKN060 73.9 68 82% 30.1 1018.5
22 03:54 SW 6 10.00 A Few Clouds FEW220 73.9 66.9 79% 30.1 1018.5
22 02:54 SW 5 10.00 A Few Clouds FEW220 73 69.1 87% 30.11 1018.6
22 01:54 SW 6 10.00 Fair CLR 75.9 66.9 87.1 75.9 74% 77 30.1 1018.4
22 00:54 SW 6 10.00 A Few Clouds FEW210 77 66.9 71% 79 30.11 1018.7
21 23:54 SW 6 10.00 A Few Clouds FEW250 79 66.9 67% 81 30.11 1018.8
21 22:54 SW 5 10.00 A Few Clouds FEW250 81 66 61% 83 30.12 1019.0
21 21:54 SW 6 10.00 A Few Clouds FEW250 81 66 61% 83 30.12 1019.1
21 20:54 SW 8 10.00 A Few Clouds FEW250 84 66 55% 86 30.13 1019.4
21 19:54 SW 10 10.00 A Few Clouds FEW060 FEW200 87.1 66 91 87.1 50% 89 30.13 1019.6
21 18:54 SW 9 10.00 A Few Clouds FEW060 89.1 66 47% 92 30.13 1019.5
21 17:54 SW 9 10.00 Partly Cloudy SCT060 90 64.9 44% 92 30.14 1019.8
21 16:54 SW 7 10.00 Partly Cloudy FEW060 SCT075 88 64.9 46% 90 30.16 1020.4
21 15:54 SW 8 10.00 Mostly Cloudy BKN055 BKN070 90 66 45% 93 30.18 1021.1
21 14:54 NW 7 10.00 Mostly Cloudy BKN060 89.1 66 47% 92 30.19 1021.6
21 13:54 W 9 10.00 Mostly Cloudy BKN055 91 66 91.9 75.9 44% 94 30.21 1022.3
21 12:54 SW 9 10.00 Mostly Cloudy BKN060 90 66.9 47% 93 30.23 1022.8
21 11:54 SW 8 10.00 Mostly Cloudy BKN050 90 66 45% 93 30.25 1023.4
21 10:54 W 8 10.00 A Few Clouds FEW055 88 64.9 46% 90 30.25 1023.4
21 09:54 W 8 10.00 A Few Clouds FEW055 FEW200 84.9 66 53% 87 30.26 1023.8
21 08:54 W 5 10.00 Partly Cloudy SCT055 79 66.9 67% 81 30.26 1024.0
21 07:54 SW 3 10.00 Mostly Cloudy SCT020 BKN230 75.9 69.1 77 71.1 79% 77 30.26 1023.9
21 06:54 SW 3 10.00 Mostly Cloudy SCT210 BKN250 72 66.9 84% 30.25 1023.6
21 05:54 SW 5 10.00 Mostly Cloudy FEW220 BKN250 72 66 82% 30.24 1023.2
21 04:54 W 8 10.00 A Few Clouds FEW180 FEW230 75.9 66.9 74% 77 30.23 1022.8
21 03:54 W 5 10.00 Fair CLR 75 66.9 76% 76 30.23 1023.0
21 02:54 W 6 10.00 Fair CLR 73 68 84% 30.24 1023.1
21 01:54 SW 5 10.00 Fair CLR 75.9 66.9 87.1 75.9 74% 77 30.24 1023.4
21 00:54 SW 3 10.00 A Few Clouds FEW240 79 66.9 67% 81 30.25 1023.5
20 23:54 SW 5 10.00 A Few Clouds FEW210 78.1 66.9 69% 80 30.25 1023.6
20 22:54 S 5 10.00 Fair CLR 80.1 66.9 64% 82 30.25 1023.6
20 21:54 SW 7 10.00 A Few Clouds FEW060 81 66 61% 83 30.24 1023.3
20 20:54 SW 9 10.00 A Few Clouds FEW060 FEW250 84 66 55% 86 30.24 1023.1
20 19:54 SW 9 10.00 A Few Clouds FEW060 FEW250 87.1 66 91.9 87.1 50% 89 30.23 1022.9
20 18:54 S 9 10.00 A Few Clouds FEW060 FEW250 89.1 66 47% 92 30.24 1023.1
20 17:54 S 8 10.00 Partly Cloudy SCT060 SCT250 90 64.9 44% 92 30.24 1023.3
20 16:54 Calm 10.00 Partly Cloudy SCT060 SCT250 91.9 64.9 41% 94 30.25 1023.6
20 15:54 Vrbl 3 10.00 Partly Cloudy FEW055 SCT070 SCT250 89.1 66 47% 92 30.27 1024.4
20 14:54 SW 5 10.00 Partly Cloudy FEW055 SCT070 SCT250 89.1 64.9 45% 91 30.28 1024.7
20 13:54 Calm 10.00 Mostly Cloudy SCT048 BKN060 BKN250 87.1 64.9 90 75 48% 89 30.3 1025.3
20 12:54 NW 7 10.00 Mostly Cloudy SCT039 BKN048 BKN060 88 68 52% 92 30.31 1025.5
20 11:54 Vrbl 6 10.00 Mostly Cloudy SCT039 BKN048 BKN060 BKN250 87.1 69.1 55% 91 30.32 1026.0
20 10:54 W 8 10.00 Partly Cloudy FEW055 SCT220 84.9 69.1 59% 89 30.32 1026.0
20 09:54 W 10 10.00 Mostly Cloudy BKN210 BKN240 82.9 69.1 63% 87 30.32 1025.9
20 08:54 W 8 10.00 Mostly Cloudy BKN210 BKN240 80.1 69.1 69% 83 30.32 1025.9
20 07:54 SW 5 10.00 Mostly Cloudy FEW180 BKN240 75 69.1 75 71.1 82% 75 30.31 1025.5
20 06:54 SW 6 10.00 Mostly Cloudy FEW180 BKN210 BKN250 72 68 87% 30.3 1025.2
20 05:54 SW 6 10.00 Mostly Cloudy FEW180 BKN220 73 68 84% 30.29 1024.8
20 04:54 SW 7 10.00 Mostly Cloudy SCT160 BKN210 75 69.1 82% 75 30.28 1024.6
20 03:54 SW 6 10.00 Partly Cloudy SCT210 73 69.1 87% 30.27 1024.3
20 02:54 SW 6 10.00 A Few Clouds FEW250 73 69.1 87% 30.26 1024.0
20 01:54 SW 6 10.00 Fair CLR 75 69.1 86 75 82% 75 30.26 1024.0
20 00:54 S 5 10.00 Partly Cloudy SCT250 77 69.1 77% 79 30.26 1024.0
Date Time (edt) Wind (mph) Vis. (mi.) Weather Sky Cond. Air Dwpt Max. Min. Relative Humidity Wind Chill (°F) Heat Index (°F) altimeter (in) sea level (mb) 1 hr 3 hr 6 hr
6 hour
Temperature (ºF) Pressure Precipitation (in)